Weather History for TJSJ - February, 2012

Change the Weather History Date:

Wednesday, February 29, 2012

  Actual Average Record
Temperature  
Mean Temperature 78 °F -  
Max Temperature 84 °F 84 °F 93 °F (1983)
Min Temperature 72 °F 72 °F 63 °F (1956)
Cooling Degree Days 13    
Month to date cooling degree days 376  
Year to date cooling degree days 764  
Growing Degree Days 28 (Base 50)    
Moisture  
Dew Point 67 °F    
Average Humidity 71    
Maximum Humidity 87    
Minimum Humidity 55    
Precipitation  
Precipitation 0.01 in - - ()
Month to date precipitation 1.97  
Year to date precipitation 5.70  
Snow  
Snow 0.00 in - - ()
Month to date snowfall 0.0  
Snow Depth 0.00 in    
Sea Level Pressure  
Sea Level Pressure 30.08 in    
Wind  
Wind Speed 11 mph (East)    
Max Wind Speed 22 mph    
Max Gust Speed 26 mph    
Visibility 10 miles    
Events      
T = Trace of Precipitation, MM = Missing Value Source: NWS Daily Summary

Daily Weather History Graph

Daily Weather History Graph

Search for Another Location

Airport or City:

Trip Planner

Search our weather history database for the weather conditions in past years. The results will help you decide how hot, cold, wet, or windy it might be!

Date:

Astronomy

Feb. 29, 2012 Rise Set
Actual Time 6:43 AM AST 6:29 PM AST
Civil Twilight 6:21 AM AST 6:51 PM AST
Nautical Twilight 5:55 AM AST 7:17 PM AST
Astronomical Twilight 5:30 AM AST 7:42 PM AST
Moon 11:34 AM AST (2/29) 12:11 AM AST (2/29)
Length of Visible Light 12h 30m
Length of Day
11h 46m
Waxing Crescent, 46% of the Moon is Illuminated
Feb 29
Waxing Crescent
Feb 29
First Quarter
Mar 8
Full
Mar 14
Last Quarter
Mar 22
New

Hourly Weather History & Observations

Time (AST) Temp. Heat Index Dew Point Humidity Pressure Visibility Wind Dir Wind Speed Gust Speed Precip Events Conditions
12:56 AM 73.9 °F - 69.1 °F 85% 30.09 in 10.0 mi SE 3.5 mph - 0.01 in   Scattered Clouds
1:56 AM 73.9 °F - 69.1 °F 85% 30.08 in 10.0 mi ESE 8.1 mph - N/A   Scattered Clouds
2:56 AM 73.9 °F - 68.0 °F 82% 30.06 in 10.0 mi Calm Calm - N/A   Scattered Clouds
3:56 AM 73.0 °F - 69.1 °F 87% 30.06 in 10.0 mi Calm Calm - N/A   Scattered Clouds
4:56 AM 73.0 °F - 68.0 °F 84% 30.07 in 10.0 mi Calm Calm - N/A   Scattered Clouds
5:56 AM 73.0 °F - 66.9 °F 81% 30.08 in 10.0 mi SE 3.5 mph - N/A   Partly Cloudy
6:56 AM 72.0 °F - 66.0 °F 81% 30.09 in 10.0 mi SE 3.5 mph - N/A   Scattered Clouds
7:56 AM 75.0 °F - 66.0 °F 73% 30.11 in 10.0 mi ESE 3.5 mph - N/A   Scattered Clouds
8:56 AM 79.0 °F - 66.0 °F 64% 30.12 in 10.0 mi East 9.2 mph - N/A   Partly Cloudy
9:56 AM 81.0 °F 82.7 °F 64.9 °F 58% 30.12 in 10.0 mi East 18.4 mph - N/A   Partly Cloudy
10:56 AM 82.0 °F 84.5 °F 66.9 °F 60% 30.12 in 10.0 mi ENE 17.3 mph 24.2 mph N/A   Scattered Clouds
11:56 AM 84.0 °F 86.5 °F 66.9 °F 56% 30.10 in 10.0 mi ENE 19.6 mph 26.5 mph N/A   Scattered Clouds
12:56 PM 82.0 °F 84.1 °F 66.0 °F 58% 30.09 in 10.0 mi ENE 16.1 mph 25.3 mph N/A   Scattered Clouds
1:56 PM 82.9 °F 85.8 °F 68.0 °F 60% 30.07 in 10.0 mi ENE 17.3 mph - N/A   Scattered Clouds
2:56 PM 82.9 °F 85.4 °F 66.9 °F 58% 30.05 in 10.0 mi ENE 17.3 mph - N/A   Scattered Clouds
3:56 PM 82.0 °F 84.5 °F 66.9 °F 60% 30.04 in 10.0 mi ENE 18.4 mph 26.5 mph N/A   Scattered Clouds
4:56 PM 80.1 °F 82.1 °F 66.0 °F 62% 30.04 in 10.0 mi ENE 18.4 mph - N/A   Scattered Clouds
5:56 PM 79.0 °F - 66.9 °F 66% 30.06 in 10.0 mi ENE 12.7 mph - N/A   Scattered Clouds
6:56 PM 78.1 °F - 66.9 °F 68% 30.06 in 10.0 mi ENE 13.8 mph - N/A   Scattered Clouds
7:56 PM 78.1 °F - 66.9 °F 68% 30.07 in 10.0 mi ENE 15.0 mph - N/A   Scattered Clouds
8:56 PM 77.0 °F - 68.0 °F 74% 30.09 in 10.0 mi ENE 13.8 mph - N/A   Scattered Clouds
9:56 PM 77.0 °F - 66.9 °F 71% 30.09 in 10.0 mi ENE 12.7 mph - N/A   Scattered Clouds
10:56 PM 75.9 °F - 68.0 °F 76% 30.09 in 10.0 mi East 16.1 mph - N/A   Scattered Clouds
11:56 PM 75.0 °F - 69.1 °F 82% 30.08 in 10.0 mi East 9.2 mph - N/A   Scattered Clouds